Powrót do katalogu

COSMOS 2528

AktywnyMilitariaLEO
NORAD 43657·PAYLOAD·🇷🇺 Russia

Wystrzelony Oct 25, 2018 z Plesetsk Cosmodrome

Loading…

Następne Przeloty (najbliższe 24 godziny)

TLE

ŚwieżeSource: Space-Track

Epoka: Sep 14, 2026, 14:10 UTC

1 43657U 18082A   26257.59092867 -.00000059  00000-0  11793-4 0  9992
2 43657  67.1474 220.4566 0007850 260.3882  99.6316 13.96714458402435

Śledź COSMOS 2528 w czasie rzeczywistym z AllMySat

Download on the App Store